Location: Flint Hill Observatory
(31.1875°N, 100.5222°W)
Time: 06:05:10
(UTC-05:00)

Daily predictions for brighter satellites

Satellite Brightness Start Highest point End
(mag) Time Altitude Azimuth Time Altitude Azimuth Time Altitude Azimuth
CZ-3B Rocket 3.5 20:59:03 10° SSW 21:01:42 17° SSE 21:05:33 10° ESE
Cosmos 1709 Rocket 4.4 21:00:19 10° N 21:06:28 69° W 21:12:33 10° S
COSMOS 2487 4.2 21:06:20 10° SE 21:08:33 16° E 21:10:48 10° ENE
Tiangong 2 4.2 21:10:31 10° NNW 21:11:18 11° N 21:12:03 10° N
HJ-1C 4.4 21:09:57 10° S 21:13:13 48° W 21:16:29 10° NNW
Cosmos 405 4.4 21:11:10 10° NNE 21:13:59 22° ENE 21:16:46 10° SE
ASTRO E2 4.0 21:13:24 10° W 21:16:51 28° SSW 21:20:18 10° SE
USA 186 1.8 21:18:53 10° SSE 21:21:59 57° ENE 21:24:59 10° N
Cosmos 2082 Rocket 2.9 21:21:31 10° SSE 21:26:26 31° ESE 21:31:21 10° NE
Meteor 1-23 Rocket 4.2 21:24:44 10° S 21:30:13 64° E 21:35:46 10° NNE
Aurora 2 Rocket 4.5 21:24:56 10° WSW 21:30:23 36° S 21:36:48 13° SE
Meteor 1-29 3.3 21:29:26 10° NNE 21:32:37 40° E 21:35:48 10° S
ALOS 4.5 21:29:12 10° SSW 21:33:00 25° W 21:36:50 10° NW
Cosmos 1743 3.3 21:30:53 10° NNW 21:34:44 61° W 21:38:35 10° S
Resurs 1-3 4.0 21:31:27 10° S 21:35:47 65° W 21:40:08 10° NNW
Helios 1A 3.2 21:37:51 13° SSE 21:41:27 55° ENE 21:45:34 10° N
CZ-4B DEB 3.5 21:40:35 21° ESE 21:41:57 32° ENE 21:44:39 10° N
Cosmos 1666 2.9 21:42:59 10° NNW 21:46:43 67° W 21:50:25 10° S
Cosmos 2074 Rocket 4.2 21:43:49 10° N 21:50:05 74° W 21:56:20 10° S
Spot 2 Rocket 4.4 21:46:44 10° S 21:51:33 46° W 21:56:24 10° NNW
Helios 1B rocket 2.7 21:48:48 10° N 21:52:56 73° WNW 21:57:03 10° SSW
Cosmos 1833 Rocket 2.8 21:49:23 10° S 21:54:49 54° ESE 22:00:18 10° NNE
Cosmos 1610 Rocket 4.4 21:50:02 10° N 21:56:16 81° E 22:02:07 11° S
Cosmos 2369 4.4 21:51:57 10° N 21:57:15 38° ENE 22:00:14 22° ESE
Cosmos 2181 Rocket 4.3 21:51:49 12° SSE 21:57:25 47° E 22:03:24 10° NNE
Cosmos 2184 Rocket 4.4 21:51:51 10° NNW 21:58:05 66° W 22:04:14 10° S
Resurs 01 Rocket 3.5 21:55:46 10° SSW 21:59:35 28° W 22:03:25 10° NW
Cosmos 921 Rocket 3.8 21:55:57 10° N 22:00:03 36° ENE 22:01:40 27° ESE
Cosmos 2228 4.3 21:58:18 10° NNE 22:01:39 22° ENE 22:02:17 21° E
Meteor 2-9 Rocket 4.4 21:56:18 10° NNW 22:01:53 76° W 22:07:33 10° S
Cosmos 1624 Rocket 4.0 21:57:20 10° N 22:02:38 71° ENE 22:05:56 23° SSE
Okean 2 3.5 21:59:14 10° SSW 22:03:17 72° W 22:07:22 10° N
SJ-11-01 4.2 22:01:37 17° SSE 22:05:11 87° WSW 22:09:55 10° NNW
SPOT 5 4.2 22:05:12 17° E 22:05:56 18° ENE 22:08:53 10° NNE
Meteor 1-15 Rocket 4.1 22:01:53 10° N 22:07:28 79° E 22:11:24 20° SSE
Envisat 3.5 22:09:27 12° S 22:14:04 57° W 22:19:04 10° NNW
Cosmos 1515 3.6 22:12:18 20° S 22:14:51 83° W 22:18:40 10° N
Lacrosse 5 3.9 22:18:42 13° ENE 22:18:42 13° ENE 22:19:20 10° ENE
MOS 1-B Rocket 4.4 22:13:00 27° SE 22:15:45 45° ENE 22:21:52 10° N
Cosmos 962 Rocket 4.5 22:10:00 10° N 22:16:07 63° E 22:19:31 27° SSE
H-2A R/B 3.6 22:16:12 17° E 22:17:02 17° ENE 22:20:17 10° NNE
OAO 2 Rocket 3.2 22:16:25 10° WNW 22:21:19 78° SSW 22:23:07 39° ESE
Cosmos 2056 Rocket 3.5 22:17:31 10° NNW 22:22:39 79° WSW 22:25:15 30° S
GPS 2-04 Rocket1 2.1 22:19:40 10° WSW 22:23:05 73° SSE 22:23:19 69° ESE
Cosmos 1066 Rocket 4.3 22:20:56 30° SSE 22:23:32 56° E 22:29:01 10° NNE
Cosmos 1892 Rocket 3.8 22:22:17 16° SSW 22:25:48 69° W 22:30:11 10° N
ARGOS 3.8 22:24:41 32° ESE 22:26:11 38° ENE 22:31:10 10° N
Cosmos 1437 Rocket 3.2 22:23:29 10° NNW 22:27:18 58° W 22:28:57 31° SSW
Cosmos 1602 Rocket 4.3 22:30:42 35° ENE 22:30:42 35° ENE 22:34:15 10° NNE
Cosmos 1269 Rocket 4.2 22:31:13 42° SE 22:32:13 47° ESE 22:37:17 10° NNE
SL-8 Rocket 4.2 22:26:32 10° N 22:32:38 51° E 22:34:39 38° SE
PSLV R/B 4.4 22:31:01 10° WNW 22:33:18 32° WSW 22:33:18 32° WSW
Cosmos 1048 Rocket 4.1 22:33:19 45° SE 22:34:17 52° ESE 22:39:17 10° NNE
Hubble Space Telescope 0.8 22:30:18 10° WSW 22:34:15 57° S 22:34:15 57° S
Cosmos 1980 Rocket 3.6 22:31:47 10° N 22:36:10 23° ENE 22:37:10 22° ENE
MetOp-B 4.2 22:35:32 43° SE 22:37:09 64° ENE 22:42:26 10° N
Cosmos 1939 Rocket 4.5 22:35:07 17° SSW 22:37:19 29° W 22:40:42 10° NW
Cosmos 1606 Rocket 4.2 22:36:27 10° NNW 22:40:39 52° W 22:42:21 32° SSW
Cosmos 2366 rocket 4.4 22:34:54 10° N 22:40:40 41° E 22:41:47 38° ESE
YAOGAN 6 3.7 22:42:08 32° SW 22:42:52 37° W 22:46:09 10° NNW
ERS-1 Rocket 3.0 22:41:26 41° S 22:43:12 76° WSW 22:48:14 10° NNW
Meteor 1-4 Rocket 3.8 22:39:53 10° N 22:42:08 30° NE 22:42:08 30° NE
Cosmos 1726 Rocket 4.2 22:44:32 10° NNW 22:48:43 50° W 22:49:57 38° SW
Tiangong 2 3.8 22:47:11 10° NNW 22:48:59 14° NNE 22:49:34 14° NNE
NOAA 11 4.1 22:48:21 46° S 22:50:02 85° WSW 22:55:29 10° NNW
Cosmos 1452 Rocket 3.4 22:49:01 10° NNW 22:54:18 78° ENE 22:55:04 64° SE
Cosmos 1809 Rocket 4.4 22:51:26 10° N 22:57:29 63° E 22:58:31 55° SE
Cosmos 1959 Rocket 4.4 22:53:27 10° N 22:59:48 72° E 23:01:11 55° SE
Meteor 1-21 4.1 23:08:15 68° ESE 23:08:31 69° E 23:14:13 10° NNE
SPOT 1/Viking Rocket 3.5 23:08:38 69° E 23:08:42 69° ENE 23:13:49 10° N
Cosmos 2082 Rocket 4.1 23:05:37 10° WSW 23:10:25 28° WNW 23:15:14 10° N
Nimbus 7 Rocket 4.5 23:04:25 10° N 23:10:30 79° WNW 23:12:49 40° SSW
Cosmos 158 Rocket 4.2 23:10:47 45° SW 23:12:20 68° WNW 23:17:42 10° N
Cosmos 2058 Rocket 4.3 23:10:07 10° NNW 23:14:10 36° W 23:14:52 33° WSW
USA 229 DEB 4.1 23:12:06 10° NNW 23:19:07 53° ENE 23:20:30 47° E
USA 229 4.1 23:12:12 10° NNW 23:19:13 53° ENE 23:20:36 47° E
SL-08 RB Rocket 4.0 23:20:12 63° NW 23:20:12 63° NW 23:24:09 10° NNW
Cosmos 1656 4.0 23:14:33 10° NNW 23:19:52 52° WSW 23:20:30 49° SW
Terra 2.9 23:21:57 34° NE 23:21:57 34° NE 23:25:16 10° N
H-2A R/B 3.6 23:22:24 29° NE 23:22:24 29° NE 23:25:11 10° N
SL-08 R/B 4.4 23:18:33 10° N 23:24:41 80° W 23:25:28 68° SSW
Lacrosse 5 rocket 4.2 23:23:13 10° NNE 23:24:44 11° NE 23:25:29 11° NE
USA 142 4.3 23:18:22 10° W 23:26:17 63° SW 23:26:17 63° SW
Cosmos 2218 Rocket 4.2 23:20:54 10° NNW 23:27:00 66° W 23:28:10 55° SW
Cosmos 1812 Rocket 4.4 23:25:19 10° N 23:28:31 47° N 23:28:31 47° N
Cosmos 1697 Rocket 2.8 23:24:35 10° NNW 23:30:08 64° WSW 23:30:13 64° WSW
Meteor 2-21 Rocket 4.5 23:35:53 10° NNW 23:41:53 69° W 23:42:07 68° WSW
SPOT 5 4.3 23:44:26 27° W 23:44:26 27° W 23:47:32 10° NW
SL-16 R/B 3.5 23:39:17 10° N 23:43:28 28° NE 23:43:28 28° NE
Nadezhda 3 Rocket 3.9 23:45:20 87° W 23:45:21 87° W 23:51:44 10° N
Cosmos 2360 4.4 23:41:31 10° NNW 23:46:28 67° N 23:46:28 67° N
